Regional Weather Roundup
Issued by NWS

Home | Current Version | Previous Version | Graphics & Text | Print | Product List | Glossary On
Versions: 1 2 3 4 5 6 7 8 9 10 11 12 13 14 15 16 17 18 19 20 21 22 23 24 25 26 27 28 29 30 31 32 33 34 35 36 37 38 39 40 41 42 43 44 45 46 47 48 49 50
823
ASUS43 KOAX 201310
RWRNE

WEATHER ROUNDUP FOR NEBRASKA
NATIONAL WEATHER SERVICE OMAHA NE
700 AM CST TUE FEB 20 2018

NOTES: SATELLITE DATA IS BEING USED TO AUGMENT CLOUD COVER ABOVE
       12000 FEET.
       "FAIR" INDICATES FEW OR NO CLOUDS BELOW 12,000 FEET WITH NO
       SIGNIFICANT WEATHER AND/OR OBSTRUCTIONS TO VISIBILITY.


NEZ001>004-019>022-054>056-201400-
NEBRASKA PANHANDLE

CITY           SKY/WX    TMP DP  RH WIND       PRES   REMARKS
SCOTTSBLUFF    CLEAR     -8 -12  83 W10       29.98R WCI -26
ALLIANCE       CLEAR    -14 -17  87 N5        29.94S WCI -26
CHADRON        PTCLDY   -12 -16  82 W3        30.04R
GORDON         FLURRIES  -6 -11  78 W7        29.98R WCI -20
KIMBALL        PTCLDY   -15 -19  81 NW10      29.89R WCI -35
SIDNEY         CLEAR     -5 -10  79 NW13      29.93R WCI -24
$$

NEZ057>060-069>072-079>082-201400-
SOUTHWEST NEBRASKA

CITY           SKY/WX    TMP DP  RH WIND       PRES   REMARKS
NORTH PLATTE   PTCLDY     3  -5  69 NW13      29.99S WCI -14
IMPERIAL       PTCLDY     1  -4  79 NW14      30.00R WCI -17
LEXINGTON      CLOUDY     8   0  69 NW18G28   30.02R WCI -11
MCCOOK         CLOUDY     7  -1  70 NW18      30.04R WCI -12
OGALLALA       FLURRIES   4  -3  72 NW6       30.01R WCI  -7
$$

NEZ005>010-023>029-035>040-094-201400-
NORTH CENTRAL NEBRASKA

CITY           SKY/WX    TMP DP  RH WIND       PRES   REMARKS
VALENTINE      LGT SNOW   2  -4  76 NW14      30.03R WCI -16
AINSWORTH      FLURRIES   3  -2  81 NW18      30.02S WCI -18
BROKEN BOW     MOCLDY     4  -3  73 NW20G28   29.99R WCI -17
O`NEILL        FLURRIES   3  -1  84 NW17G24   30.00S WCI -17
ORD            CLEAR      5  -1  76 NW18      29.99S WCI -15
THEDFORD       CLOUDY     3  -2  77 NW15G21   30.01R WCI -15
$$

NEZ041-046>049-061>064-073>077-083>087-201400-
SOUTH CENTRAL NEBRASKA

CITY           SKY/WX    TMP DP  RH WIND       PRES   REMARKS
GRAND ISLAND   CLOUDY     9   2  73 NW20G28   30.03R WCI -10
AURORA         CLOUDY    10   4  77 NW15      30.02R WCI  -6
HASTINGS       CLOUDY     9   2  73 N17       30.02R WCI  -9
HEBRON         CLOUDY    17  11  80 N14       30.00F WCI   2
HOLDREGE       CLOUDY     9   2  75 N16G28    30.01R WCI  -9
KEARNEY        CLOUDY     7   0  73 N18       30.01S WCI -12
YORK           FLURRIES  10   9  92 NW13      30.03R WCI  -5
$$

NEZ011>018-030>034-042>045-201400-
NORTHEAST NEBRASKA

CITY           SKY/WX    TMP DP  RH WIND       PRES   REMARKS
NORFOLK        CLOUDY     6   2  83 NW14      29.97S WCI -11
ALBION         PTCLDY     7   1  76 NW17      30.00R WCI -12
BLAIR          CLOUDY    18  14  85 NW7       29.97R WCI   8
COLUMBUS       CLOUDY    10   5  80 NW20      30.00R WCI  -9
FREMONT        CLOUDY    16  12  85 NW16      29.99R WCI   0
TEKAMAH        CLOUDY    16  12  84 NW13      29.97F WCI   2
WAYNE          CLOUDY     8   4  82 NW13      29.98R WCI  -7
$$

NEZ050>053-065>068-078-088>093-201400-
SOUTHEAST NEBRASKA

CITY           SKY/WX    TMP DP  RH WIND       PRES   REMARKS
LINCOLN        FLURRIES  17  11  77 NW16      30.02R WCI   2
OMAHA EPPLEY   CLOUDY    19  15  84 NW13      29.98R WCI   6
BEATRICE       CLOUDY    19  17  90 NW18      29.96F WCI   4
FALLS CITY     CLOUDY    22  20  92 NW15G26   29.93S WCI   9
NEBRASKA CITY  LGT SNOW  21  21 100 NW13      29.94R WCI   9
PLATTSMOUTH    CLOUDY    20  18  93 NW14      29.97R WCI   7
$$

NEZ044-045-051>053-067-201400-
OMAHA AREA

CITY           SKY/WX    TMP DP  RH WIND       PRES   REMARKS
OMAHA EPPLEY   CLOUDY    19  15  84 NW13      29.98R WCI   6
BLAIR          CLOUDY    18  14  85 NW7       29.97R WCI   8
FREMONT        CLOUDY    16  12  85 NW16      29.99R WCI   0
MILLARD        CLOUDY    20  16  82 NW14G20   29.99R WCI   7
OFFUTT AFB     CLOUDY    19  15  85 NW13      29.97R WCI   6
PLATTSMOUTH    CLOUDY    20  18  93 NW14      29.97R WCI   7
WAHOO          CLOUDY    17  11  80 NW15      30.01R WCI   2
$$




USA.gov is the U.S. government's official web portal to all federal, state and local government web resources and services.